SL-16 DEB, 22613

Orbit data source: Space-Track

SL-16 DEB, 22613 is space debris in LEO originally from a launch on Fri, 26 Mar 1993 UTC launched from the Tyuratam Missile And Space Complex (TTMTR). Debris objects in space refer to the collection of defunct objects orbiting the Earth. Examples of debris include non-operational satellites, rocket bodies, and fragments generated from explosions, collisions, or faulty payload assembly.

Loading next visibility...
Identifier
22613, 1993-016X
Orbit
LEO
Country
Flag of CISCIS
Related business
Manufacturer
Unknown
Mission
Spacecraft
Bus & Motor
Unknown
Mass
Unknown
Launch date (UTC)
1993-03-26 (33 years ago)
Launch vehicle
Unknown
Launch site
Tyuratam Missile And Space Complex (TTMTR)
Object type
Payload
Rocket body
Debris
Shape & HBR
Unknown shape, 0.1 m
Radar Cross Section
Small (<0.1 m²)

Expand to show TLE details & history
Last TLE update: 13 hours ago

TLE from 13 hours ago
0 SL-16 DEB
1 22613U 93016X   25305.58023741  .00000526  00000-0  50018-3 0  9998
2 22613  71.0018 351.8839 0190202 131.1220  19.3470 13.77352158633620
Epoch: 2025-11-01T13:55Z
TLE epoch observation values (Epoch: 2025-11-01T13:55:32.512Z)
Latitude
27.14003°
Longitude
-88.22057°
Altitude
844.412 km
Speed
7.499 km/s
True Right ascension
10h 47m 05s
True Declination
27° 00' 08"
Sunlit
Object was in daylight at epoch
Visualization orbit readout
Latitude
Unknown
Longitude
Unknown
Altitude
Unknown
Speed
Unknown
Apparent Right ascension
Unknown
Apparent Declination
Unknown
Sunlit
N/A
Visualization observer readout
Local Sidereal Time
22:18:10
Azimuth
Unknown
Elevation
Unknown
Doppler factor
Unknown
Orbital elements
Apogee altitude
1,111.041 km
Perigee altitude
831.467 km
Semi-major axis
7,349.391 km
Eccentricity
0.01902
Inclination
71.0018°
RAAN
351.8839°
Arg. of periapsis
131.122°
True anomaly
20.08559°
Mean anomaly
19.347°
Eccentric anomaly
19.71462°
Mean motion
3.44482 °/min
Orbital period
104.5 mins
BSTAR
0.00050018
Loading maneuver chart data...
Computing Atmospheric mass density...
Loading historical data...
Loading historical data...
Loading historical data...
Loading historical data...
Loading historical data...
Loading historical data...
Loading historical data...

Documentation

Showing up to 5 results
|